Location: Ciserano
(45.5833°N, 9.6000°E)
Time: 06:26:46
(UTC+00:00)

Cosmos 1295 Rocket - Pass Details

Date: 17 April 2021
Orbit: 944 x 993 km, 82.9° (Epoch: 13 May)

Event Time Altitude Azimuth Distance (km) Brightness Sun altitude
Rises 23:10:50 0° 358° (N) 3,669 8.6 -33.5°
Reaches altitude 10° 23:13:38 10° 8° (N) 2,726 7.6 -33.6°
Enters shadow 23:19:09 33° 70° (ENE) 1,586 5.7 -33.6°
